Wind_Speed
1 0 1 2 2 2 2 1 1 2 3 4 4 4 5 5 5 5 5 5 5 5 5 5 4 4 4 4 5 5 5 5 5 5 5 5 5 5 5 5 5 6 6
2 1 1 1 2 3 2 2 0 1 2 3 3 3 3 3 3 3 3 3 3 3 3 3 3 3 3 3 3 3 3 4 4 5 5 5 5 5 5 6 6 6 6
3 2 2 2 3 3 3 2 1 1 1 2 2 2 1 1 2 2 2 1 2 2 2 2 2 2 2 2 2 2 2 3 3 4 4 5 5 5 5 5 6 7 7
4 3 4 4 3 3 3 3 2 2 1 1 1 1 1 1 0 0 0 1 2 2 2 2 2 2 2 2 1 1 2 2 3 3 4 4 5 5 5 5 5 6 6
6 5 5 4 4 4 3 3 3 2 2 2 1 1 1 2 2 2 2 2 3 3 4 4 4 4 3 3 3 2 3 3 3 3 4 4 5 5 5 5 5 6 6
7 6 5 5 5 5 4 4 4 4 3 3 3 3 2 3 3 3 4 4 4 5 5 5 5 5 5 5 4 4 4 4 4 5 5 5 5 5 5 5 5 6 6
8 7 7 6 6 6 5 5 5 5 4 4 4 4 4 4 4 4 5 5 6 6 7 7 7 7 7 7 6 6 6 6 6 6 6 6 6 6 6 6 6 6 6
9 8 8 8 7 7 7 6 6 5 5 5 5 5 5 5 5 6 5 5 6 7 7 8 8 8 8 8 9 8 8 8 8 7 7 7 7 7 7 7 7 7 7
11 10 9 9 10 9 8 8 7 7 6 6 6 6 6 6 6 5 5 5 6 7 8 8 9 8 9 9 10 10 10 10 10 10 9 9 9 9 9 8 8 8 8
12 12 12 11 12 11 10 10 9 8 8 7 7 7 7 7 6 6 6 6 6 6 7 8 9 9 10 11 11 11 12 12 13 12 12 11 11 11 11 10 9 9 9
14 14 14 13 13 13 12 11 11 10 9 9 9 9 9 8 7 7 7 7 7 7 8 9 9 10 11 12 12 12 12 13 15 15 14 14 13 12 13 12 11 11 11
16 16 16 15 14 14 13 12 12 11 10 10 10 10 10 9 9 8 8 8 8 9 9 9 9 11 12 13 13 13 13 13 15 16 16 16 15 15 15 15 14 13 13
18 18 18 17 16 16 15 14 13 12 11 11 10 10 9 9 9 9 9 9 9 9 10 10 10 10 11 12 12 13 14 14 14 16 17 17 17 17 16 17 17 16 15
19 19 18 18 17 16 15 14 13 12 12 11 11 10 9 9 9 9 9 9 9 10 11 11 11 11 10 11 11 12 13 15 15 16 17 17 18 18 18 18 19 19 18
20 19 18 18 16 16 15 13 12 13 12 12 11 9 9 9 9 9 9 9 10 10 11 11 11 11 10 10 12 12 13 13 15 16 18 18 19 19 19 20 20 21 21
21 19 19 17 17 15 14 13 13 13 12 11 10 10 9 9 10 9 8 9 10 11 11 11 11 11 11 11 12 13 13 13 15 16 17 19 20 20 20 21 21 22 23
20 19 18 17 16 15 13 12 11 11 11 11 10 9 9 9 9 8 8 9 10 11 11 11 12 12 12 13 13 14 14 15 15 17 18 19 21 22 22 22 23 23 24
18 18 17 16 15 13 12 11 10 10 10 9 9 8 8 8 7 7 8 9 9 10 10 11 11 12 13 14 14 15 15 16 17 17 18 19 21 22 23 24 24 25 25
16 16 15 15 14 12 11 10 9 8 7 7 7 6 6 6 6 7 8 8 9 9 9 10 11 11 12 13 14 15 16 17 18 19 20 20 22 23 24 25 26 26 26
16 15 14 13 12 11 10 8 7 7 5 5 5 5 5 5 5 6 7 8 8 8 9 9 10 11 12 13 13 15 16 17 18 19 20 22 22 24 25 25 26 27 28
14 14 13 12 11 11 10 8 7 5 4 4 4 3 3 4 5 5 6 7 7 8 9 10 10 11 12 13 14 15 16 17 18 19 21 22 23 24 25 26 27 27 28
12 13 13 11 10 11 10 8 5 4 3 3 2 2 3 3 4 5 6 6 7 8 9 10 11 12 13 13 14 16 17 18 19 20 21 22 23 25 26 28 28 29 29
11 11 11 11 10 10 8 6 4 3 3 1 1 1 2 3 4 5 6 7 7 8 9 10 11 12 13 14 15 16 17 18 19 20 21 23 24 24 26 27 29 30 30
11 11 11 11 11 9 7 6 5 4 3 2 0 1 2 3 4 5 6 7 8 9 10 11 12 13 13 14 15 16 17 18 20 21 22 23 24 25 26 28 29 30 31
10 10 10 11 10 9 8 6 5 5 4 2 1 1 2 3 4 5 7 8 9 10 11 12 13 14 14 15 16 17 18 19 20 21 22 23 24 25 27 28 30 32 32
9 9 10 11 9 9 8 7 6 5 4 2 1 2 3 4 5 6 7 9 10 11 12 13 14 15 15 16 16 17 18 19 20 21 22 23 25 26 27 28 30 32 34
Wind_Direction
178 29 12 358 342 324 314 302 2 87 97 99 96 94 95 94 90 87 84 86 88 88 88 90 89 84 82 81 82 85 88 93 98 99 99 104 111 114 115 117 121 124 126
255 252 262 302 308 302 295 279 250 107 107 105 104 103 96 96 94 90 95 99 101 100 98 99 102 99 94 87 86 89 95 100 105 106 104 109 114 117 120 123 126 125 126
233 238 255 269 282 283 277 266 223 164 130 114 109 115 111 101 104 102 107 127 135 139 134 126 128 129 122 118 108 105 111 117 123 120 115 117 122 122 123 126 130 130 130
234 246 261 265 271 266 263 259 239 211 188 159 131 143 175 181 154 174 198 207 207 211 210 201 192 185 178 170 165 162 158 151 149 143 140 137 135 134 133 136 142 141 140
238 251 259 258 261 255 253 258 243 228 220 216 232 238 237 242 248 252 254 245 237 236 235 230 226 220 210 201 196 196 192 186 183 176 171 163 157 153 151 151 151 151 150
242 250 262 262 255 246 246 251 248 238 232 231 237 250 257 261 259 258 262 257 248 246 245 243 240 237 230 220 214 211 204 198 197 198 193 186 181 175 170 167 165 164 164
241 250 260 260 253 248 250 253 250 244 240 241 246 255 260 269 270 269 267 264 259 255 252 251 249 244 244 237 229 222 216 209 206 208 209 206 202 193 184 178 176 177 176
239 247 252 256 254 252 254 257 250 248 250 251 253 261 265 274 273 272 272 272 268 262 258 254 251 248 247 242 235 228 224 218 214 214 215 215 212 208 200 195 192 192 191
242 243 250 253 252 252 257 258 251 253 258 258 262 268 274 278 279 274 272 277 276 270 264 256 255 253 249 245 239 233 229 225 220 218 218 218 217 215 211 206 204 202 201
245 244 248 252 251 252 256 256 253 254 259 261 268 275 275 279 275 269 272 277 284 277 275 265 258 254 249 246 241 238 233 228 225 222 222 221 221 219 217 214 211 211 210
244 244 245 250 251 252 253 257 257 256 259 263 269 276 277 278 275 275 275 276 283 281 281 272 265 259 254 249 244 241 238 233 229 226 225 224 224 223 222 220 217 216 215
239 241 242 247 251 251 253 257 258 259 261 266 272 279 278 279 282 279 279 278 282 280 282 277 271 264 259 254 247 241 238 237 233 231 228 227 226 225 224 224 222 221 219
238 239 239 243 248 250 254 257 260 260 263 269 273 279 277 279 285 286 283 281 281 281 281 280 280 272 266 258 249 241 238 239 237 235 233 231 230 230 229 227 225 224 223
235 236 237 240 245 249 249 251 257 256 261 267 270 274 275 283 286 289 291 286 280 282 283 282 281 275 271 263 254 245 244 241 239 237 235 234 233 234 233 231 230 229 225
233 233 235 235 240 245 246 249 255 256 259 267 271 277 281 286 286 287 291 289 290 289 287 284 282 280 278 269 260 252 251 250 246 242 238 236 236 237 238 236 234 235 232
232 230 233 235 241 244 244 247 253 256 261 266 269 276 282 285 289 292 292 296 296 292 289 286 281 276 275 270 266 261 257 253 253 246 244 242 239 238 240 241 239 239 237
227 227 228 233 241 240 242 244 247 252 259 265 272 280 282 283 289 293 296 299 299 293 288 286 282 277 272 269 267 263 259 258 257 253 251 246 243 242 241 243 243 242 241
221 220 227 232 235 239 238 237 245 250 261 271 279 282 280 284 291 298 301 301 299 294 289 287 283 279 276 272 269 265 263 261 259 258 256 251 248 247 245 245 245 244 243
222 221 222 223 227 232 230 232 239 251 267 276 278 282 289 300 301 303 304 304 304 301 296 292 288 283 280 275 272 270 268 267 266 263 260 257 255 252 250 249 247 246 245
213 212 214 217 222 224 222 228 235 245 261 279 283 288 292 297 302 305 306 307 306 303 300 295 292 287 282 278 275 271 269 269 268 266 263 261 260 257 254 251 250 247 246
203 206 209 211 215 217 221 227 230 239 260 274 279 289 299 306 313 316 317 317 317 313 306 301 297 292 286 282 279 276 274 272 271 269 267 263 260 259 257 254 252 251 248
196 198 205 208 210 212 216 218 219 222 239 262 277 305 308 314 323 325 323 323 323 323 318 312 306 298 292 288 285 282 279 276 273 271 268 266 263 260 259 255 254 253 251
192 199 206 202 202 200 194 192 196 202 213 223 279 318 325 331 332 329 326 327 328 328 326 322 317 312 304 297 291 286 282 279 276 273 270 267 267 264 261 258 255 254 252
192 198 197 196 192 184 178 179 176 178 175 166 139 1 357 349 343 339 337 338 336 333 329 325 321 316 310 303 298 293 288 284 280 277 273 270 268 265 263 260 256 254 253
186 187 185 184 183 178 174 173 171 167 162 157 117 28 7 357 351 345 343 341 339 334 330 325 321 317 313 308 303 298 293 289 285 282 278 274 271 267 264 263 259 255 253
181 183 183 177 179 177 176 176 172 165 160 152 80 18 2 355 348 343 340 338 335 332 328 326 323 319 316 312 307 303 299 295 290 286 282 279 275 272 268 265 262 258 256
Height
5908 5908 5908 5908 5907 5907 5907 5907 5906 5906 5906 5905 5905 5905 5905 5904 5904 5904 5904 5904 5904 5904 5904 5903 5903 5903 5903 5903 5903 5903 5903 5902 5902 5902 5901 5901 5901 5901 5901 5900 5900 5900 5900
5907 5907 5907 5907 5907 5907 5907 5906 5906 5905 5905 5905 5905 5905 5905 5904 5904 5904 5904 5904 5904 5904 5904 5904 5904 5904 5904 5904 5904 5903 5903 5903 5903 5902 5902 5902 5902 5902 5901 5901 5902 5901 5902
5906 5906 5906 5906 5906 5906 5906 5906 5905 5905 5904 5904 5904 5904 5904 5904 5904 5904 5904 5903 5903 5904 5904 5904 5904 5903 5903 5903 5904 5904 5904 5904 5904 5903 5903 5903 5902 5902 5902 5902 5903 5903 5903
5904 5904 5905 5905 5905 5905 5905 5905 5905 5904 5904 5904 5904 5904 5903 5903 5903 5903 5903 5903 5903 5903 5903 5903 5903 5903 5903 5903 5904 5904 5904 5904 5904 5904 5904 5904 5903 5903 5904 5904 5904 5904 5904
5903 5903 5903 5903 5904 5904 5904 5904 5904 5903 5903 5903 5903 5903 5903 5903 5903 5902 5902 5902 5902 5902 5903 5903 5903 5903 5903 5903 5903 5903 5904 5904 5904 5904 5904 5904 5904 5904 5904 5905 5905 5905 5905
5901 5902 5902 5902 5902 5902 5903 5903 5903 5902 5902 5902 5901 5902 5902 5902 5902 5902 5902 5902 5901 5901 5902 5902 5902 5902 5902 5902 5903 5903 5903 5903 5904 5904 5904 5904 5905 5905 5905 5905 5906 5906 5906
5900 5900 5901 5901 5901 5901 5901 5901 5901 5901 5901 5900 5900 5900 5900 5900 5900 5900 5900 5900 5900 5900 5900 5901 5901 5901 5901 5901 5902 5902 5902 5903 5903 5904 5904 5904 5905 5905 5906 5906 5906 5906 5907
5897 5898 5899 5899 5899 5900 5900 5900 5900 5900 5899 5899 5899 5899 5899 5899 5899 5899 5899 5899 5899 5899 5899 5899 5899 5899 5900 5900 5900 5901 5901 5902 5902 5903 5903 5904 5905 5905 5906 5906 5906 5907 5907
5895 5896 5897 5897 5897 5897 5898 5898 5898 5898 5898 5898 5897 5897 5897 5897 5897 5897 5897 5897 5897 5897 5897 5897 5897 5897 5898 5898 5898 5899 5899 5900 5901 5901 5902 5903 5904 5905 5905 5906 5906 5907 5907
5893 5894 5894 5894 5895 5895 5896 5896 5896 5896 5896 5896 5896 5895 5895 5894 5894 5894 5895 5895 5894 5895 5895 5895 5895 5895 5896 5896 5896 5897 5897 5898 5899 5900 5901 5902 5903 5904 5904 5905 5906 5906 5907
5890 5891 5891 5892 5892 5892 5893 5893 5893 5893 5893 5893 5893 5893 5892 5892 5892 5892 5892 5892 5892 5892 5893 5893 5893 5893 5893 5893 5894 5894 5895 5896 5897 5897 5899 5900 5901 5902 5903 5904 5905 5905 5906
5887 5888 5888 5889 5889 5890 5890 5891 5891 5891 5891 5891 5891 5890 5890 5890 5889 5889 5889 5889 5889 5890 5890 5890 5890 5890 5889 5890 5890 5891 5892 5893 5894 5895 5896 5897 5899 5900 5901 5902 5903 5904 5905
5884 5884 5885 5886 5886 5887 5888 5888 5888 5888 5888 5888 5888 5888 5887 5887 5887 5887 5887 5886 5887 5887 5887 5887 5887 5887 5886 5887 5887 5888 5889 5890 5891 5892 5893 5895 5896 5897 5898 5899 5901 5902 5903
5880 5880 5881 5883 5883 5884 5885 5885 5885 5886 5886 5886 5885 5885 5884 5884 5884 5884 5884 5884 5884 5884 5884 5884 5884 5884 5884 5884 5885 5885 5886 5887 5888 5889 5890 5891 5893 5894 5895 5896 5898 5899 5901
5876 5877 5879 5880 5881 5881 5882 5882 5883 5883 5883 5883 5883 5882 5882 5882 5882 5882 5882 5881 5881 5881 5881 5881 5881 5881 5881 5881 5882 5883 5883 5884 5884 5885 5887 5888 5889 5891 5892 5893 5894 5896 5897
5871 5873 5875 5877 5878 5879 5879 5880 5880 5881 5881 5881 5881 5881 5880 5880 5880 5880 5879 5879 5878 5878 5878 5878 5878 5878 5878 5879 5879 5880 5880 5880 5881 5882 5883 5884 5885 5887 5888 5889 5891 5892 5893
5867 5870 5872 5874 5875 5876 5877 5877 5878 5878 5879 5879 5879 5879 5879 5878 5877 5877 5877 5877 5876 5875 5875 5875 5875 5875 5875 5876 5876 5876 5876 5877 5877 5878 5879 5880 5881 5882 5884 5885 5886 5887 5889
5864 5866 5869 5871 5872 5873 5874 5875 5876 5877 5877 5877 5877 5877 5877 5876 5875 5875 5874 5874 5873 5873 5872 5872 5872 5872 5872 5872 5873 5873 5873 5873 5874 5874 5875 5875 5876 5877 5879 5880 5881 5882 5884
5861 5863 5865 5867 5870 5871 5873 5874 5874 5875 5875 5875 5875 5875 5874 5874 5874 5873 5872 5871 5871 5870 5870 5869 5869 5869 5869 5869 5869 5869 5869 5869 5870 5870 5870 5871 5872 5872 5874 5875 5876 5877 5878
5859 5861 5863 5865 5867 5869 5871 5872 5873 5873 5873 5873 5874 5873 5873 5873 5872 5871 5870 5869 5869 5868 5867 5867 5866 5866 5866 5865 5865 5865 5865 5865 5865 5865 5866 5866 5867 5867 5868 5870 5871 5872 5873
5856 5858 5861 5863 5866 5867 5869 5870 5871 5872 5872 5873 5873 5872 5872 5871 5870 5869 5869 5868 5867 5866 5865 5864 5863 5863 5862 5862 5862 5861 5861 5861 5861 5861 5861 5861 5861 5862 5863 5864 5865 5866 5867
5854 5857 5859 5862 5864 5866 5867 5868 5869 5870 5871 5871 5871 5871 5870 5870 5869 5868 5867 5866 5865 5864 5863 5862 5861 5860 5859 5858 5858 5857 5857 5857 5856 5856 5856 5856 5856 5857 5857 5858 5859 5860 5861
5853 5855 5858 5860 5862 5864 5866 5867 5868 5869 5870 5870 5870 5870 5869 5868 5867 5867 5866 5865 5863 5862 5861 5860 5859 5857 5856 5855 5854 5853 5853 5852 5851 5851 5851 5851 5851 5851 5851 5851 5852 5853 5854
5853 5855 5857 5859 5861 5863 5865 5866 5867 5868 5869 5869 5869 5868 5868 5867 5866 5865 5864 5863 5862 5860 5859 5858 5856 5855 5853 5852 5850 5849 5848 5847 5846 5846 5845 5845 5845 5845 5845 5845 5845 5846 5847
5852 5854 5856 5858 5860 5862 5864 5865 5866 5867 5868 5868 5868 5867 5867 5866 5865 5864 5863 5861 5860 5858 5857 5855 5854 5852 5850 5848 5846 5845 5843 5842 5841 5840 5839 5839 5838 5838 5838 5838 5838 5839 5840
5852 5853 5855 5857 5859 5862 5863 5865 5866 5866 5867 5867 5867 5867 5866 5865 5864 5863 5862 5860 5858 5857 5855 5853 5851 5849 5846 5844 5842 5841 5839 5837 5836 5834 5833 5832 5832 5831 5831 5831 5831 5831 5832